Regional Weather Roundup
Issued by NWS

Home | Current Version | Previous Version | Graphics & Text | Print | Product List | Glossary On
Versions: 1 2 3 4 5 6 7 8 9 10 11 12 13 14 15 16 17 18 19 20 21 22 23 24 25 26 27 28 29 30 31 32 33 34 35 36 37 38 39 40 41 42 43 44 45 46 47 48 49 50
000
ASUS43 KLMK 201510
RWRKY
KENTUCKY REGIONAL WEATHER ROUNDUP
NATIONAL WEATHER SERVICE LOUISVILLE KY
1100 AM EDT MON OCT 20 2014

NOTE "FAIR" INDICATES FEW OR NO CLOUDS BELOW 12,000 FEET
WITH NO SIGNIFICANT WEATHER AND/OR OBSTRUCTIONS TO VISIBILITY.

KYZ001>023-026-027-061>063-070>075-201600-
WESTERN AND SOUTH CENTRAL KENTUCKY

CITY           SKY/WX    TMP DP  RH WIND       PRES   REMARKS
PADUCAH        CLOUDY    56  49  77 SW9       30.04F
HENDERSON      CLOUDY    55  46  71 SW14      30.02F
OWENSBORO      PTSUNNY   58  50  75 SW12      30.03F
HOPKINSVILLE   CLOUDY    54  52  94 S5        30.07F
BOWLING GREEN  PTSUNNY   56  48  74 SW7       30.09S
GLASGOW        CLOUDY    53  48  84 SW5       30.08S
$$

KYZ024-025-028>034-038-045-046-053-201600-
NORTH CENTRAL KENTUCKY

CITY           SKY/WX    TMP DP  RH WIND       PRES   REMARKS
LOUISVILLE/SDF CLOUDY    53  49  86 S7        30.03F
LOUISVILLE/LOU PTSUNNY   51  48  89 S7        30.04F
FORT KNOX      CLOUDY    51  47  86 S8        30.04S
$$

KYZ035>037-039>044-047>052-055>060-089>105-201600-
NORTHEAST KENTUCKY

CITY           SKY/WX    TMP DP  RH WIND       PRES   REMARKS
LEXINGTON      LGT RAIN  51  46  83 SW8       30.05F
COVINGTON      PTSUNNY   56  46  69 S12       29.98F
FRANKFORT      CLOUDY    50  47  89 SW8       30.04F
$$

KYZ054-064>069-076>088-106>120-201600-
SOUTHEAST KENTUCKY

CITY           SKY/WX    TMP DP  RH WIND       PRES   REMARKS
JACKSON        PTSUNNY   51  44  77 CALM      30.07F
LONDON         MOSUNNY   57  45  64 W8        30.09F
SOMERSET       CLOUDY    50  46  87 CALM      30.10F
MIDDLESBORO    SUNNY     54  47  75 CALM      30.11F
MONTICELLO     HAZE      57  49  75 S6        30.10F VSB 1/2
$$



USA.gov is the U.S. government's official web portal to all federal, state and local government web resources and services.